Location: Sherrills_Ford_Terrell
(35.6000°N, 80.9830°W)
Time: 15:50:31
(UTC-04:00)

ISS - Visible Passes

Search period start: 29 August 2016 00:00
Search period end: 08 September 2016 00:00
Orbit: 402 x 406 km, 51.6° (Epoch: 29 August)

Date Brightness Start Highest point End Pass type
(mag) Time Alt. Az. Time Alt. Az. Time Alt. Az.
02 Sep -0.3 05:42:36 10° SE 05:43:29 11° SE 05:44:21 10° ESE visible
03 Sep -3.0 06:23:53 10° SW 06:27:06 64° SE 06:30:22 10° NE visible
04 Sep -1.7 05:33:16 20° S 05:34:45 28° SE 05:37:38 10° ENE visible
05 Sep -0.4 04:43:21 13° ESE 04:43:21 13° ESE 04:44:15 10° E visible
05 Sep -2.8 06:16:01 14° WSW 06:18:38 45° NW 06:21:48 10° NE visible
06 Sep -3.5 05:25:59 78° SSW 05:26:09 84° SE 05:29:26 10° NE visible
07 Sep -0.4 04:35:51 17° ENE 04:35:51 17° ENE 04:36:48 10° ENE visible
07 Sep -1.5 06:08:31 14° WNW 06:10:18 21° NNW 06:12:52 10° NNE visible
